TimeCDT,TemperatureF,Dew PointF,Humidity,Sea Level PressureIn,VisibilityMPH,Wind Direction,Wind SpeedMPH,Gust SpeedMPH,PrecipitationIn,Events,Conditions,WindDirDegrees,DateUTC
12:15 AM,51.4,41.4,68,29.99,10.0,West,9.2,-,N/A,,Clear,270,2012-10-15 05:15:00
12:35 AM,52.3,41.0,65,29.99,10.0,West,9.2,-,N/A,,Clear,270,2012-10-15 05:35:00
12:55 AM,51.3,41.2,68,29.99,10.0,West,10.4,-,N/A,,Clear,270,2012-10-15 05:55:00
1:15 AM,52.2,41.2,66,29.98,10.0,West,9.2,-,N/A,,Mostly Cloudy,270,2012-10-15 06:15:00
1:35 AM,53.8,40.1,60,29.98,10.0,West,6.9,-,N/A,,Scattered Clouds,270,2012-10-15 06:35:00
1:55 AM,53.4,40.1,61,29.98,10.0,West,6.9,-,N/A,,Scattered Clouds,280,2012-10-15 06:55:00
2:15 AM,52.5,41.4,66,29.98,10.0,Calm,Calm,-,N/A,,Mostly Cloudy,0,2012-10-15 07:15:00
2:35 AM,51.1,40.1,66,29.98,10.0,Calm,Calm,-,N/A,,Scattered Clouds,0,2012-10-15 07:35:00
2:55 AM,50.2,40.1,68,29.99,10.0,Calm,Calm,-,N/A,,Clear,0,2012-10-15 07:55:00
3:15 AM,50.0,40.1,69,29.98,10.0,Calm,Calm,-,N/A,,Clear,0,2012-10-15 08:15:00
3:35 AM,47.7,40.5,76,29.98,10.0,Calm,Calm,-,N/A,,Clear,0,2012-10-15 08:35:00
3:55 AM,49.3,40.3,71,29.98,10.0,Calm,Calm,-,N/A,,Clear,0,2012-10-15 08:55:00
4:15 AM,52.0,39.7,63,29.97,10.0,Calm,Calm,-,N/A,,Clear,0,2012-10-15 09:15:00
4:55 AM,51.4,39.6,64,29.98,10.0,Calm,Calm,-,N/A,,Clear,0,2012-10-15 09:55:00
5:15 AM,50.9,39.4,65,29.98,10.0,Calm,Calm,-,N/A,,Clear,0,2012-10-15 10:15:00
5:55 AM,49.3,39.6,69,29.99,10.0,Calm,Calm,-,N/A,,Clear,0,2012-10-15 10:55:00
6:15 AM,50.0,39.9,68,29.99,10.0,Calm,Calm,-,N/A,,Clear,0,2012-10-15 11:15:00
6:35 AM,45.0,39.6,81,29.98,10.0,SSE,6.9,-,N/A,,Clear,160,2012-10-15 11:35:00
6:55 AM,46.6,40.6,80,29.98,10.0,Calm,Calm,-,N/A,,Clear,0,2012-10-15 11:55:00
7:15 AM,46.4,40.6,80,29.98,10.0,Calm,Calm,-,N/A,,Clear,0,2012-10-15 12:15:00
7:35 AM,46.4,40.8,81,29.98,10.0,Calm,Calm,-,N/A,,Clear,0,2012-10-15 12:35:00
7:55 AM,47.1,40.6,78,29.99,10.0,SSE,4.6,-,N/A,,Clear,160,2012-10-15 12:55:00
8:15 AM,47.7,41.4,79,29.99,10.0,South,4.6,-,N/A,,Clear,170,2012-10-15 13:15:00
8:35 AM,48.2,43.5,84,29.99,10.0,Calm,Calm,-,N/A,,Clear,0,2012-10-15 13:35:00
8:55 AM,50.0,45.0,83,29.99,10.0,Calm,Calm,-,N/A,,Clear,0,2012-10-15 13:55:00
9:15 AM,52.0,44.8,76,29.99,10.0,Calm,Calm,-,N/A,,Clear,0,2012-10-15 14:15:00
9:35 AM,53.8,44.2,70,29.99,10.0,SSE,6.9,-,N/A,,Clear,160,2012-10-15 14:35:00
9:55 AM,55.6,43.3,63,29.99,10.0,SSE,5.8,-,N/A,,Clear,160,2012-10-15 14:55:00
10:15 AM,57.4,42.6,58,30.00,10.0,SSE,8.1,-,N/A,,Clear,150,2012-10-15 15:15:00
10:55 AM,61.0,44.2,54,29.99,10.0,SSE,6.9,-,N/A,,Clear,160,2012-10-15 15:55:00
11:15 AM,61.9,44.2,52,29.98,10.0,SSE,6.9,-,N/A,,Clear,160,2012-10-15 16:15:00
11:35 AM,63.9,44.8,50,29.97,10.0,SSE,6.9,-,N/A,,Clear,160,2012-10-15 16:35:00
11:55 AM,65.8,43.3,44,29.97,10.0,South,10.4,-,N/A,,Clear,180,2012-10-15 16:55:00
12:15 PM,67.3,44.4,44,29.96,10.0,South,6.9,-,N/A,,Clear,170,2012-10-15 17:15:00
12:35 PM,68.0,44.8,43,29.96,10.0,South,8.1,-,N/A,,Clear,170,2012-10-15 17:35:00
12:55 PM,68.9,44.8,42,29.95,10.0,SSE,6.9,-,N/A,,Clear,160,2012-10-15 17:55:00
1:15 PM,70.2,44.4,40,29.94,10.0,South,8.1,-,N/A,,Clear,170,2012-10-15 18:15:00
1:35 PM,71.4,43.9,37,29.93,10.0,SE,6.9,-,N/A,,Clear,140,2012-10-15 18:35:00
1:55 PM,72.1,43.7,36,29.92,10.0,South,6.9,-,N/A,,Clear,180,2012-10-15 18:55:00
2:15 PM,72.9,43.7,35,29.91,10.0,SSE,4.6,-,N/A,,Clear,150,2012-10-15 19:15:00
2:35 PM,73.4,44.2,35,29.90,10.0,Calm,Calm,-,N/A,,Clear,0,2012-10-15 19:35:00
2:55 PM,73.4,44.4,35,29.89,10.0,South,6.9,-,N/A,,Clear,170,2012-10-15 19:55:00
3:15 PM,73.8,44.1,34,29.89,10.0,South,6.9,-,N/A,,Clear,180,2012-10-15 20:15:00
3:35 PM,73.8,45.3,36,29.87,10.0,South,11.5,-,N/A,,Clear,170,2012-10-15 20:35:00
3:55 PM,74.5,44.8,35,29.87,10.0,SSE,12.7,-,N/A,,Clear,160,2012-10-15 20:55:00
4:15 PM,74.7,45.1,35,29.86,10.0,SSW,12.7,17.3,N/A,,Clear,200,2012-10-15 21:15:00
4:35 PM,74.1,44.8,35,29.86,10.0,South,10.4,-,N/A,,Clear,190,2012-10-15 21:35:00
4:55 PM,72.9,45.5,38,29.85,10.0,South,9.2,-,N/A,,Clear,180,2012-10-15 21:55:00
5:15 PM,71.6,46.4,41,29.84,10.0,South,9.2,-,N/A,,Clear,170,2012-10-15 22:15:00
5:35 PM,72.5,46.4,39,29.84,10.0,SSE,9.2,-,N/A,,Clear,160,2012-10-15 22:35:00
5:55 PM,71.1,47.1,42,29.83,7.0,SSE,6.9,-,N/A,,Clear,150,2012-10-15 22:55:00
6:15 PM,70.5,46.4,42,29.83,3.0,SE,8.1,-,N/A,,Haze,140,2012-10-15 23:15:00
6:35 PM,69.1,46.4,44,29.82,5.0,SE,8.1,-,N/A,,Haze,140,2012-10-15 23:35:00
6:55 PM,68.0,46.4,46,29.82,5.0,SE,9.2,-,N/A,,Haze,140,2012-10-15 23:55:00
7:15 PM,66.2,46.9,50,29.82,4.0,SE,6.9,-,N/A,,Haze,140,2012-10-16 00:15:00
7:35 PM,64.4,47.3,54,29.82,3.0,SSE,6.9,-,N/A,,Haze,150,2012-10-16 00:35:00
7:55 PM,62.1,47.5,59,29.82,7.0,SSE,5.8,-,N/A,,Clear,150,2012-10-16 00:55:00
8:15 PM,60.4,47.7,63,29.82,10.0,SSE,5.8,-,N/A,,Clear,160,2012-10-16 01:15:00
8:35 PM,59.7,47.5,64,29.81,10.0,SSE,5.8,-,N/A,,Clear,160,2012-10-16 01:35:00
8:55 PM,59.9,48.2,65,29.82,10.0,SSE,8.1,-,N/A,,Clear,160,2012-10-16 01:55:00
9:15 PM,59.2,48.2,67,29.81,7.0,SSE,6.9,-,N/A,,Clear,160,2012-10-16 02:15:00
9:35 PM,58.6,48.2,68,29.81,10.0,SSE,9.2,-,N/A,,Clear,160,2012-10-16 02:35:00
9:55 PM,59.0,48.4,68,29.81,10.0,SSE,8.1,-,N/A,,Clear,160,2012-10-16 02:55:00
10:15 PM,57.7,48.2,70,29.81,10.0,South,9.2,-,N/A,,Clear,170,2012-10-16 03:15:00
10:35 PM,59.0,48.7,69,29.80,10.0,South,10.4,-,N/A,,Clear,170,2012-10-16 03:35:00
10:55 PM,59.2,49.1,69,29.80,10.0,South,10.4,-,N/A,,Clear,170,2012-10-16 03:55:00
11:15 PM,58.6,49.1,71,29.80,10.0,South,9.2,-,N/A,,Clear,170,2012-10-16 04:15:00
11:35 PM,58.1,49.3,72,29.79,10.0,South,10.4,-,N/A,,Clear,170,2012-10-16 04:35:00
11:55 PM,57.4,49.6,75,29.78,10.0,South,10.4,-,N/A,,Clear,170,2012-10-16 04:55:00